Redmond, OR

6:19 PM PST on December 15, 2019 (GMT -0800)
Roberts Field Airport

Weather History for KRDM - November, 2019

Change the Weather History Date:

Monday, November 11, 2019

  Actual Average Record
Temperature  
Mean Temperature 42 °F 39 °F  
Max Temperature 56 °F 51 °F 74 °F (1999)
Min Temperature 28 °F 27 °F 4 °F (1985)
Degree Days  
Heating Degree Days 23 26  
Month to date heating degree days 225 268  
Since 1 July heating degree days 1144 1213  
Cooling Degree Days 0 0  
Month to date cooling degree days 0 0  
Year to date cooling degree days 293 222  
Moisture  
Dew Point 34 °F    
Average Humidity 74    
Maximum Humidity 93    
Minimum Humidity 55    
Precipitation  
Precipitation 0.00 in 0.03 in 0.52 in (1951)
Month to date precipitation 0.00 0.34  
Year to date precipitation 9.27 7.12  
Sea Level Pressure  
Sea Level Pressure 30.33 in    
Wind  
Wind Speed 2 mph (SW)    
Max Wind Speed 10 mph    
Max Gust Speed 13 mph    
Visibility 5 miles    
Events Fog    
T = Trace of Precipitation, MM = Missing Value Source: NWS Daily Summary

Daily Weather History Graph

Daily Weather History Graph

Search for Another Location

Airport or City:

Astronomy

Nov. 11, 2019 Rise Set
Actual Time 6:54 AM PST 4:41 PM PST
Civil Twilight 6:23 AM PST 5:12 PM PST
Nautical Twilight 5:48 AM PST 5:47 PM PST
Astronomical Twilight 5:14 AM PST 6:21 PM PST
Moon 4:43 PM PST (11/11) 5:47 AM PST (11/11)
Length of Visible Light 10h 49m
Length of Day
9h 47m
Waxing Gibbous, 99% of the Moon is Illuminated
Nov 11
Waxing Gibbous
Nov 12
Full
Nov 19
Last Quarter
Nov 26
New
Dec 3
First Quarter

Hourly Weather History & Observations

Time (PST) Temp. Windchill Dew Point Humidity Pressure Visibility Wind Dir Wind Speed Gust Speed Precip Events Conditions
12:56 AM 41.0 °F 38.0 °F 37.0 °F 86% 30.33 in 10.0 mi WNW 4.6 mph - N/A   Clear
1:51 AM 35.6 °F - 33.8 °F 93% 30.34 in 1.8 mi Calm Calm - N/A   Clear
1:56 AM 36.0 °F - 34.0 °F 93% 30.34 in 1.0 mi Calm Calm - N/A   Clear
2:08 AM 36.0 °F - 34.0 °F 93% 30.34 in 10.0 mi Calm Calm - N/A   Scattered Clouds
2:34 AM 33.1 °F - 30.9 °F 92% 30.34 in 2.5 mi Calm Calm - N/A   Partly Cloudy
2:42 AM 32.0 °F - 30.9 °F 96% 30.34 in 1.5 mi Calm Calm - N/A   Clear
2:46 AM 32.0 °F - 30.0 °F 92% 30.34 in 3.0 mi Calm Calm - N/A   Clear
2:56 AM 33.1 °F - 30.9 °F 92% 30.34 in 9.0 mi Calm Calm - N/A   Clear
3:28 AM 33.1 °F 30.0 °F 30.0 °F 89% 30.34 in 1.8 mi SE 3.5 mph - N/A   Mostly Cloudy
3:46 AM 33.1 °F 27.7 °F 30.9 °F 92% 30.34 in 4.0 mi South 5.8 mph - N/A   Overcast
3:56 AM 33.1 °F 28.7 °F 30.9 °F 92% 30.34 in 7.0 mi South 4.6 mph - N/A   Overcast
4:56 AM 30.9 °F - 28.9 °F 92% 30.36 in 5.0 mi Calm Calm - N/A   Overcast
5:45 AM 33.1 °F - 30.9 °F 92% 30.35 in 0.5 mi Calm Calm - N/A   Overcast
5:56 AM 33.1 °F - 30.9 °F 92% 30.38 in 0.5 mi Calm Calm - N/A Fog Fog
6:16 AM 34.0 °F - 32.0 °F 92% 30.36 in 0.2 mi Calm Calm - N/A Fog Fog
6:31 AM 35.1 °F - 33.1 °F 92% 30.36 in 0.8 mi Calm Calm - N/A   Mist
6:36 AM 35.1 °F - 33.1 °F 92% 30.36 in 2.0 mi Calm Calm - N/A   Overcast
6:44 AM 35.1 °F - 33.1 °F 92% 30.36 in 1.0 mi Calm Calm - N/A   Overcast
6:56 AM 35.1 °F - 33.1 °F 92% 30.39 in 1.0 mi Calm Calm - N/A   Overcast
7:21 AM 36.0 °F - 34.0 °F 93% 30.37 in 0.5 mi Calm Calm - N/A Fog Fog
7:41 AM 36.0 °F 33.3 °F 34.0 °F 93% 30.38 in 1.2 mi SE 3.5 mph - N/A   Overcast
7:52 AM 37.4 °F - 35.6 °F 93% 30.38 in 0.5 mi Calm Calm - N/A Fog Fog
7:56 AM 37.0 °F - 35.1 °F 93% 30.40 in 0.2 mi Calm Calm - N/A Fog Fog
8:56 AM 39.0 °F - 37.9 °F 96% 30.40 in 0.2 mi Calm Calm - N/A Fog Fog
9:03 AM 39.9 °F - 37.9 °F 93% 30.38 in 0.5 mi Calm Calm - N/A Fog Fog
9:54 AM 41.0 °F 39.0 °F 39.2 °F 93% 30.37 in 3.0 mi WSW 3.5 mph - N/A   Overcast
9:55 AM 41.0 °F 39.0 °F 39.0 °F 93% 30.40 in 3.0 mi WSW 3.5 mph - N/A   Overcast
10:56 AM 46.0 °F - 39.0 °F 76% 30.37 in 10.0 mi Calm Calm - N/A   Mostly Cloudy
11:56 AM 51.1 °F - 39.0 °F 63% 30.32 in 10.0 mi Calm Calm - N/A   Clear
12:56 PM 54.0 °F - 39.0 °F 57% 30.28 in 10.0 mi Calm Calm - N/A   Clear
1:56 PM 55.0 °F - 39.0 °F 55% 30.27 in 10.0 mi North 9.2 mph - N/A   Clear
2:56 PM 55.0 °F - 39.0 °F 55% 30.27 in 10.0 mi Variable 4.6 mph - N/A   Clear
3:56 PM 51.1 °F - 37.9 °F 61% 30.27 in 10.0 mi North 6.9 mph - N/A   Clear
4:56 PM 46.9 °F - 37.9 °F 71% 30.29 in 10.0 mi NNW 6.9 mph - N/A   Clear
5:56 PM 44.1 °F 41.5 °F 37.0 °F 76% 30.28 in 10.0 mi WNW 4.6 mph - N/A   Clear
6:56 PM 41.0 °F 39.0 °F 35.1 °F 79% 30.30 in 10.0 mi WSW 3.5 mph - N/A   Clear
7:56 PM 37.0 °F 34.5 °F 33.1 °F 86% 30.30 in 10.0 mi WSW 3.5 mph - N/A   Clear
8:56 PM 35.1 °F 32.2 °F 32.0 °F 89% 30.28 in 7.0 mi SSE 3.5 mph - N/A   Clear
9:56 PM 35.1 °F 32.2 °F 32.0 °F 89% 30.27 in 9.0 mi SSE 3.5 mph - N/A   Clear
10:56 PM 34.0 °F - 30.9 °F 89% 30.24 in 8.0 mi Calm Calm - N/A   Clear
11:56 PM 28.0 °F - 26.1 °F 92% 30.21 in 5.0 mi Calm Calm - N/A   Clear